www.pogodaiklimat.ru

Погода и климат >> Архив погоды >> Мексика >> La Paz


ПОГОДА в La Paz

  • Прогноз погоды в La Paz
  • Монитор погоды в La Paz
  • Климат города

АРХИВ ПОГОДЫ в La Paz

Время (UTC), дата Ветер
(напр.,м/с)
 
Видим.   Явления Облачность Т
(С)
Тd
(С)
f
(%)
Тe
(С)
Тes
(С)
Комфортность P
(гПа)
Po
(гПа)
Тmin
(С)
Tmax
(С)
R
(мм)
R24
(мм)
S
(см)
21 20.06 ЮЗ 2 30 км 1/0
[Ci fib]
+36.6 +20.7 40 +43 +62 опасность
перегрева
1007.5 1005.4
00 21.06 Ю 4 30 км 4/0 2000 м
[Ac und Ci fib]
+31.6 +19.9 50 +38 +40 очень
душно
1006.4 1004.4 +19.4 +37.6
03 21.06 Ю 4 2000 м 4/0 2000 м
[Ac As Ci fib]
+24.6 +18.4 68 +29 +29 душно 1008.0 1006.0
06 21.06 Ю 5 2000 м 5/0 2000 м
[Ac trans Ci fib]
+21.2 +17.7 80 +25 +25 комфорт 1009.2 1007.2 +19.4 +37.6
09 21.06 Ю 4 2000 м 4/0 2000 м
[Ac trans]
+21.0 +17.8 82 +25 +25 комфорт 1007.9 1005.9
12 21.06 Ю 3 2000 м 5/5 1200 м
[Sc diur, vesp]
+21.2 +17.6 80 +25 +25 комфорт 1008.1 1006.1 +21.0 +37.6
15 21.06 Ю 4 25 км 1/1 1200 м
[Sc diur, vesp]
+23.0 +18.2 74 +29 +32 очень
душно
1009.6 1007.5
18 21.06 Ю 2 30 км ясно +32.2 +20.0 49 +39 +59 опасность
солнечного
удара
1008.5 1006.4 +20.0 +32.6
21 21.06 Ю 5 30 км ясно +34.0 +19.8 43 +40 +50 очень
душно
1007.5 1005.4
00 22.06 ЮЗ 4 30 км 4/0 2000 м
[Ac trans]
+31.0 +19.5 50 +37 +39 очень
душно
1007.0 1004.9 +20.0 +36.8
03 22.06 ЮЗ 4 2000 м 1/0
[Ci fib]
+24.8 +18.6 68 +29 +29 душно 1007.8 1005.8
06 22.06 Ю 4 2000 м ясно +21.6 +18.3 82 +26 +26 душно 1010.2 1008.2 +20.0 +36.8
09 22.06 Ю 3 2000 м 8/8 900 м
[St]
+21.0 +18.3 85 +26 +26 душно 1009.7 1007.7
12 22.06 Ю 4 2000 м 9/9 900 м
[St]
+21.1 +18.4 85 +25 +25 комфорт 1009.6 1007.7 +20.9 +36.8
15 22.06 Ю 4 25 км ясно +22.9 +18.4 76 +29 +33 очень
душно
1010.6 1008.5
18 22.06 Ю 4 30 км ясно +30.3 +18.5 49 +35 +49 очень
душно
1010.1 1008.0 +20.9 +31.0
21 22.06 Ю 4 30 км ясно +33.3 +18.9 43 +38 +51 опасность
солнечного
удара
1009.3 1007.2
00 23.06 ЮЗ 4 30 км ясно +31.2 +18.8 48 +36 +40 очень
душно
1008.5 1006.5 +20.9 +34.2
03 23.06 Ю 3 2000 м ясно +25.0 +18.7 68 +30 +30 душно 1010.3 1008.2
06 23.06 Ю 5 2000 м ясно +22.2 +18.8 81 +28 +28 душно 1012.0 1010.0 +20.9 +34.2
09 23.06 Ю 4 2000 м 1/1 900 м
[St]
+21.2 +18.7 86 +26 +26 душно 1011.5 1009.4
12 23.06 Ю 3 2000 м 4/0
[Ci fib]
+20.8 +18.6 87 +25 +25 комфорт 1011.3 1009.2 +20.4 +34.2
15 23.06 Ю 3 25 км ясно +23.4 +19.1 77 +30 +35 очень
душно
1011.9 1009.8
18 23.06 СЗ 1 30 км ясно +32.8 +19.2 45 +38 +62 опасность
солнечного
удара
1010.3 1008.2 +20.2 +33.0
21 23.06 С 3 30 км ясно +37.2 +19.0 35 +42 +58 опасность
перегрева
1008.1 1006.0
00 24.06 Ю 4 30 км ясно +34.4 +20.3 44 +41 +44 опасность
перегрева
1007.2 1005.2 +20.2 +38.9
03 24.06 Ю 4 2000 м ясно +25.6 +19.2 68 +31 +31 очень
душно
1008.9 1006.9
06 24.06 Ю 6 2000 м 1/1 600 м
[St]
+22.0 +18.9 83 +27 +27 душно 1010.7 1008.7 +20.2 +38.9
09 24.06 Ю 6 2000 м 5/4 900 м
[St Ac trans]
+21.0 +18.9 88 +25 +25 комфорт 1009.8 1007.7
12 24.06 Ю 6 2000 м 8/8 1200 м
[Sc diur, vesp]
+20.9 +18.5 86 +25 +25 комфорт 1009.6 1007.5 +20.9 +38.9
15 24.06 Ю 5 25 км 6/6 1200 м
[Sc diur, vesp]
+22.8 +18.7 78 +29 +30 очень
душно
1010.7 1008.6
18 24.06 Ю 2 30 км 3/3 1000 м
[Sc diur, vesp]
+30.0 +20.3 56 +37 +51 опасность
солнечного
удара
1010.0 1007.9 0.0
21 24.06 Ю 4 30 км 1/0
[Ci fib]
+37.0 +21.5 41 +45 +57 опасность
перегрева
1007.5 1005.4
00 25.06 Ю 3 30 км 3/0 2000 м
[Ac trans Ci fib]
+35.0 +21.1 44 +42 +45 опасность
перегрева
1006.7 1004.7 +20.8 +38.0
03 25.06 Ю 4 2000 м 4/0
[Ci fib]
+26.2 +19.9 68 +32 +32 очень
душно
1008.5 1006.5
06 25.06 Ю 4 2000 м 4/0 2000 м
[Ac trans Ci fib]
+23.2 +19.2 78 +30 +30 очень
душно
1010.8 1008.7 +20.8 +38.0
09 25.06 Ю 5 2000 м 1/0 2000 м
[Ac trans]
+21.2 +19.0 87 +26 +26 душно 1010.3 1008.3
12 25.06 Ю 4 2000 м 8/8 900 м
[St]
+20.4 +18.9 91 +24 +24 комфорт 1010.7 1008.6 +20.4 +38.0
15 25.06 Ю 2 25 км {дождь} 6/6 1200 м
[Sc diur, vesp]
+22.2 +19.3 84 +28 +30 душно 1012.8 1010.7 0.0
18 25.06 Ю 1 30 км 1/1 1200 м
[Sc diur, vesp]
+30.4 +22.8 64 +40 +61 опасность
солнечного
удара
1012.4 1010.3 +20.4 +30.9
21 25.06 С 3 30 км ясно +32.4 +22.8 57 +42 +58 опасность
перегрева
1011.3 1009.2
00 26.06 Ю 4 30 км 5/0
[Ci fib]
+32.8 +21.7 52 +41 +44 опасность
перегрева
1010.1 1008.1 +20.4 +36.1
03 26.06 Ю 3 2000 м 5/0
[Ci]
+25.6 +19.8 70 +31 +31 очень
душно
1010.7 1008.7
12 26.06 Ю 2 2000 м 6/3 1000 м
[Sc diur, vesp Ci fib]
+22.6 +19.1 81 +29 +29 очень
душно
1011.9 1009.9 +21.2 +36.1
15 26.06 Ю 4 25 км 3/0
[Ci fib]
+25.2 +19.5 71 +31 +34 очень
душно
1012.0 1009.9
18 26.06 Ю 2 30 км 1/0
[Ci fib]
+33.4 +22.1 52 +42 +62 опасность
перегрева
1012.5 1010.4 +21.2 +33.8
21 26.06 СЗ 4 27 км 5/0
[Cs]
+34.4 +22.8 51 +44 +56 опасность
перегрева
1010.7 1008.7
00 27.06 З 3 27 км 3/0
[Cs]
+37.0 +24.1 48 +49 +52 опасность
перегрева
1009.3 1007.3 +21.2 +39.2
03 27.06 Ю 4 2000 м 6/0 2000 м
[Ac cast Ci fib]
+28.4 +20.1 61 +35 +35 очень
душно
1011.6 1009.6
06 27.06 Ю 3 2000 м 1/0
[Ci fib]
+25.2 +20.0 73 +31 +31 очень
душно
1012.8 1010.7 +21.2 +39.2
09 27.06 Ю 3 2000 м 3/0
[Ci fib]
+24.6 +19.3 72 +30 +30 очень
душно
1011.6 1009.6
12 27.06 Ю 4 2000 м 6/0 2000 м
[Ac und]
+23.9 +19.4 76 +29 +29 душно 1011.2 1009.1 +23.6 +39.2
15 27.06 Ю 3 25 км 4/0 2000 м
[Ac trans]
+26.2 +20.0 69 +32 +36 очень
душно
1012.8 1010.7
18 27.06 Ю 3 25 км 8/0 2000 м
[Ac trans]
+34.4 +22.0 49 +43 +52 опасность
перегрева
1012.1 1010.0 +23.6 +34.7

 

Местоположение метеостанции La Paz (Мексика): широта 24.17 долгота -110.30 высота над уровнем моря 18 м.

В архиве по умолчанию представлена погода в La Paz за последнюю неделю. Архивные данные за месяц целиком и за предыдущие месяцы, начиная с января 2011 года, Вы можете получить, выбрав интересующий диапазон дат из раскрывающегося списка и нажав кнопку "Ввод!".

Внимание! Время в таблицах - всемирное. Для получения местного времени необходимо прибавить поправку, которая в La Paz равна -6 ч.

Смотрите также архив погоды в соседних городах и на ближайших метеорологических станциях:

Погода в Ciudad Constitucion (Мексика) (166 км)
Погода в Loreto (Мексика) (229 км)
Погода в Culiacan (Мексика) (302 км)
Погода в Choix (Мексика) (354 км)
Погода в Ciudad Obregon (Мексика) (361 км)
Погода в Santa Rosalia (Мексика) (397 км)
Погода в Colonia Juan Carras-Co (Мексика) (412 км)
Погода в Guaymas Upper Air Site (Мексика) (421 км)
Погода в Empalme (Мексика) (422 км)
Погода в Tepehuanes (Мексика) (481 км)

Пояснения к столбцам:

Ветер - указаны скорость ветра в м/с - средняя за 10 мин, порывы в срок и между сроками (в фигурных скобках) и направление, откуда дует ветер: С - северный, СВ - северо-восточный, В - восточный, ЮВ - юго-восточный, Ю - южный, ЮЗ - юго-западный, З - западный, СЗ - северо-западный.
Видимость - горизонтальная дальность видимости в метрах или километрах. При видимости от 1 до 10 км при отсутствии осадков обычно наблюдается дымка, при ухудшении видимости до 1 км и менее - туман. В сухую погоду видимость может ухудшаться дымом, пылью или мглою.
Явления - указаны атмосферные явления, наблюдавшиеся в срок или в последний час перед сроком; фигурными скобками обозначены явления, наблюдавшиеся между сроками (за 1-3 часа до срока); квадратными скобками обозначены град или гололедные отложения с указанием их диаметра в мм.
Облачность - указаны через наклонную черту общая и нижняя облачность в баллах и высота нижней границы облаков в метрах; квадратными скобками обозначены формы облаков: Ci - перистые, Cs - перисто-слоистые, Cc - перисто-кучевые, Ac - высококучевые, As - высокослоистые, Sc - слоисто-кучевые, Ns - слоисто-дождевые, Cu - кучевые, Cb - кучево-дождевые. Подробнее классификацию облаков см. в Атласе облаков (PDF).
T - Температура воздуха - температура, измеренная на высоте 2 м над землей.
Td - Температура точки росы - температура, при понижении до которой содержащийся в воздухе водяной пар достигнет насыщения.
f - Относительная влажность воздуха - влажноcть воздуха, измеренная на высоте 2 м над землей.
Te - Эффективная температура - температура, которую ощущает одетый по сезону человек в тени. Характеристика душности погоды. При расчете учитывается влияние влажности воздуха и скорости ветра на теплоощущения человека.
Tes - Эффективная температура на солнце - температура, которую ощущает человек, с поправкой на солнечный нагрев. Характеристика знойности погоды. Зависит от высоты солнца над горизонтом, облачности и скорости ветра. Ночью, в пасмурную погоду, а также при ветре 12 м/с и более поправка равна нулю.
P - Атмосферное давление - приведенное к уровню моря атмосферное давление.
Po - Атмосферное давление - измеренное на уровне метеостанции атмосферное давление.
Tmin - Минимальная температура - минимум температуры воздуха на высоте 2 м над землей.
Tmax - Максимальная температура - максимум температуры воздуха на высоте 2 м над землей.
R - Количество осадков - Количество выпавших осадков за период времени, мм. При наведении курсора мыши на число - период времени, за который выпало указанное количество осадков.
R24 - Количество осадков - Количество выпавших осадков за 24 часа, мм.
S - Снежный покров - Высота снежного покрова, см. При наведении курсора мыши на число - состояние снежного покрова и степень покрытия местности в баллах.